Location: Girdwood
(60.9430°N, 149.1660°W)
Time: 16:38:36
(UTC-09:00)

Amateur Radio Satellites - All Passes

Search period start: 19 December 2014 16:08
Search period end: 20 December 2014 16:08
Location: Girdwood, 60.9430°N, 149.1660°W

Satellite Date Start Highest point End Downlink Frequencies (MHz)
Time Altitude Azimuth
JAS-2 19 Dec 16:10:23 16:17:42 68° 64° (ENE) 16:24:15 435.910
MOZHAYETS 4 19 Dec 16:17:02 16:18:23 11° 78° (ENE) 16:19:44
CUSAT 1 19 Dec 16:21:59 16:24:34 13° 10° (N) 16:27:22 437.405
SPROUT 19 Dec 16:27:21 16:28:40 11° 323° (NW) 16:29:59 437.525
TISAT 1 19 Dec 16:27:56 16:28:53 11° 324° (NW) 16:29:49 437.305
Cubesat XI-IV 19 Dec 16:29:18 16:34:00 33° 51° (NE) 16:38:43 437.490
MaSat-1 19 Dec 16:36:07 16:37:59 22° 29° (NNE) 16:39:54 437.345
ITUPSAT 1 19 Dec 16:42:06 16:46:07 27° 309° (NW) 16:50:07 437.325
SWISSCUBE 19 Dec 16:42:09 16:46:05 26° 310° (NW) 16:49:59 437.505
BEESAT 3 19 Dec 16:42:53 16:47:04 90° 28° (NNE) 16:51:18 437.485
AIST 2 19 Dec 16:43:25 16:47:40 63° 141° (SE) 16:51:58 435.215
AO-7 19 Dec 16:45:58 16:53:58 48° 260° (W) 17:02:02 29.400- 29.500
STARS 19 Dec 16:49:24 16:53:49 66° 293° (WNW) 16:58:13 437.465
KKS-1 19 Dec 16:50:50 16:55:10 51° 297° (WNW) 16:59:30 437.445
PCSat 19 Dec 16:51:22 16:56:49 89° 323° (NW) 17:02:18 145.827
Gurwin Techsat 1B 19 Dec 16:55:20 16:56:46 11° 285° (WNW) 16:58:13 435.225
AUBIESAT-1 19 Dec 16:59:12 17:03:38 43° 309° (NW) 17:07:45 437.475
ISS 19 Dec 17:01:43 17:03:36 14° 166° (SSE) 17:05:28 145.825
CUTE-I 19 Dec 17:02:21 17:07:26 47° 59° (ENE) 17:12:31 437.470
BEESAT 19 Dec 17:07:37 17:11:07 21° 315° (NW) 17:14:36 436.000
DANDE 19 Dec 17:09:05 17:12:14 14° 21° (NNE) 17:15:45 436.750
AIST 1 19 Dec 17:10:55 17:15:01 40° 93° (E) 17:19:05
BEESAT 2 19 Dec 17:21:54 17:26:06 69° 338° (NNW) 17:30:19 435.950
GONETS M04 19 Dec 17:22:35 17:31:28 88° 76° (ENE) 17:40:14
M-CUBED/EXP-1 PRIME 19 Dec 17:24:11 17:28:19 31° 316° (NW) 17:32:13 437.505
HO-68 19 Dec 17:37:38 17:43:15 26° 30° (NNE) 17:48:52 435.675
MOZHAYETS 4 19 Dec 17:52:15 17:56:48 49° 99° (E) 18:01:17
JAS-2 19 Dec 17:56:07 18:03:07 43° 265° (W) 18:09:29 435.910
CUSAT 1 19 Dec 18:05:31 18:10:23 21° 37° (NE) 18:16:00 437.405
SEEDS 19 Dec 18:05:37 18:06:13 10° 35° (NE) 18:06:48 437.485
CUTE 1.7 + AOD 2 19 Dec 18:06:52 18:08:11 11° 37° (NE) 18:09:31 437.475
Cubesat XI-IV 19 Dec 18:08:28 18:13:48 75° 253° (WSW) 18:19:10 437.490
MaSat-1 19 Dec 18:09:17 18:11:30 49° 230° (SW) 18:13:48 437.345
RS-15 19 Dec 18:12:47 18:23:49 75° 9° (N) 18:35:15 29.354- 29.394
BEESAT 3 19 Dec 18:21:29 18:25:35 50° 353° (N) 18:29:42 437.485
ITUPSAT 1 19 Dec 18:21:39 18:22:40 11° 332° (NNW) 18:23:41 437.325
SWISSCUBE 19 Dec 18:22:00 18:22:33 10° 333° (NNW) 18:23:06 437.505
AIST 2 19 Dec 18:22:09 18:26:26 59° 344° (NNW) 18:30:44 435.215
STARS 19 Dec 18:26:37 18:29:39 18° 315° (NW) 18:32:41 437.465
KKS-1 19 Dec 18:28:23 18:30:59 16° 319° (NW) 18:33:35 437.445
DOVE 4 19 Dec 18:30:24 18:31:45 11° 36° (NE) 18:33:07 437.250
AUBIESAT-1 19 Dec 18:34:39 18:37:38 17° 331° (NNW) 18:40:31 437.475
PCSat 19 Dec 18:35:27 18:40:44 49° 346° (NNW) 18:46:02 145.827
ISS 19 Dec 18:37:10 18:39:19 16° 186° (S) 18:41:29 145.825
Oscar 11 19 Dec 18:40:31 18:41:14 10° 34° (NE) 18:41:58 145.826/435.025
CUTE-I 19 Dec 18:42:27 18:47:35 48° 261° (W) 18:52:45 437.470
AO-7 19 Dec 18:44:33 18:49:10 16° 286° (WNW) 18:53:48 29.400- 29.500
UKube-1 19 Dec 18:48:11 18:49:10 11° 33° (NNE) 18:50:09 .
AIST 1 19 Dec 18:48:35 18:52:44 40° 295° (WNW) 18:56:52
DANDE 19 Dec 18:52:33 18:58:02 28° 46° (NE) 19:04:36 436.750
PRISM 19 Dec 18:58:44 19:02:40 37° 98° (E) 19:06:32 437.425
STRAND 1 19 Dec 18:59:15 19:03:22 24° 89° (E) 19:07:28 437.568
M-CUBED/EXP-1 PRIME 19 Dec 18:59:43 19:02:10 14° 338° (NNW) 19:04:33 437.505
AAUSAT CUBESAT 2 19 Dec 18:59:43 19:02:25 17° 46° (NE) 19:05:07 437.432
BEESAT 2 19 Dec 19:00:42 19:04:48 49° 1° (N) 19:08:55 435.950
CINEMA 3 19 Dec 19:02:11 19:04:11 13° 39° (NE) 19:06:13 145.822/145.860
BRITE-PL 19 Dec 19:04:20 19:07:34 22° 51° (NE) 19:10:52 437.365/2234.400
CANX-2 19 Dec 19:08:47 19:12:16 25° 53° (NE) 19:15:47 2200.000
CUBESAT XI-V 19 Dec 19:12:34 19:16:44 32° 93° (E) 19:20:51 437.345
GONETS M04 19 Dec 19:19:53 19:27:28 34° 282° (WNW) 19:34:59
HO-68 19 Dec 19:22:49 19:29:46 55° 54° (NE) 19:36:44 435.675
MOZHAYETS 4 19 Dec 19:29:40 19:34:00 39° 301° (WNW) 19:38:17
UWE-3 19 Dec 19:31:52 19:34:02 14° 40° (NE) 19:36:14 435.000/436.395/437.385
COMPASS 1 19 Dec 19:33:08 19:36:43 27° 55° (NE) 19:40:20 437.405
FUNcube-1 19 Dec 19:33:50 19:35:46 13° 39° (NE) 19:37:43 145.935
GOMX 1 19 Dec 19:35:18 19:38:53 28° 55° (NE) 19:42:34 467.674
SEEDS 19 Dec 19:37:08 19:40:55 31° 57° (ENE) 19:44:44 437.485
CUTE 1.7 + AOD 2 19 Dec 19:39:09 19:43:04 35° 59° (ENE) 19:47:01 437.475
JAS-2 19 Dec 19:46:53 19:49:57 13° 287° (WNW) 19:52:55 435.910
AISAT 19 Dec 19:47:57 19:49:59 13° 38° (NE) 19:52:01 437.250
CUSAT 1 19 Dec 19:48:32 19:55:03 49° 60° (ENE) 20:02:55 437.405
DX 1 19 Dec 19:49:03 19:52:21 22° 48° (NE) 19:55:39 434.975-435.025
Cubesat XI-IV 19 Dec 19:51:03 19:54:50 19° 275° (W) 19:58:38 437.490
DELFI C3 19 Dec 19:55:49 19:58:57 21° 51° (NE) 20:02:06 145.870
BEESAT 3 19 Dec 20:00:07 20:04:17 58° 16° (NNE) 20:08:26 437.485
50 SAT 19 Dec 20:00:11 20:01:27 11° 39° (NE) 20:02:45 437.505
AIST 2 19 Dec 20:01:20 20:05:35 51° 7° (N) 20:09:49 435.215
DOVE 4 19 Dec 20:04:37 20:08:27 36° 59° (ENE) 20:12:26 437.250
AUBIESAT-1 19 Dec 20:10:07 20:11:03 11° 353° (N) 20:12:00 437.475
Oscar 11 19 Dec 20:12:25 20:16:15 31° 56° (ENE) 20:20:07 145.826/435.025
HUMSAT D 19 Dec 20:13:44 20:16:14 16° 44° (NE) 20:18:45 437.325/437.525
PCSat 19 Dec 20:19:46 20:25:02 47° 12° (NNE) 20:30:19 145.827
UKube-1 19 Dec 20:20:23 20:24:13 31° 55° (NE) 20:28:03 .
RS-15 19 Dec 20:25:36 20:36:39 78° 220° (SW) 20:48:10 29.354- 29.394
CUBEBUG 2 19 Dec 20:26:07 20:29:47 28° 55° (NE) 20:33:32 437.445
CUTE-I 19 Dec 20:27:02 20:29:03 12° 283° (WNW) 20:31:03 437.470
AIST 1 19 Dec 20:30:03 20:31:39 12° 318° (NW) 20:33:15
AAUSAT CUBESAT 2 19 Dec 20:33:13 20:37:24 62° 67° (ENE) 20:41:37 437.432
PRISM 19 Dec 20:34:19 20:38:19 44° 299° (WNW) 20:42:16 437.425
M-CUBED/EXP-1 PRIME 19 Dec 20:34:43 20:35:32 10° 0° (N) 20:36:21 437.505
DANDE 19 Dec 20:35:55 20:42:35 69° 68° (ENE) 20:50:51 436.750
CINEMA 3 19 Dec 20:36:26 20:40:26 43° 62° (ENE) 20:44:36 145.822/145.860
STRAND 1 19 Dec 20:38:05 20:43:14 86° 291° (WNW) 20:48:20 437.568
BEESAT 2 19 Dec 20:39:16 20:43:30 72° 24° (NNE) 20:47:43 435.950
VELOX 1 19 Dec 20:39:44 20:43:13 23° 50° (NE) 20:46:42 145.980
ESTCUBE 1 19 Dec 20:40:10 20:42:50 16° 41° (NE) 20:45:29 437.505/2401.250
ZACube-1 19 Dec 20:40:35 20:44:16 29° 55° (NE) 20:48:01 437.345
BRITE-PL 19 Dec 20:41:34 20:45:44 82° 254° (WSW) 20:49:59 437.365/2234.400
CANX-2 19 Dec 20:43:33 20:47:51 79° 254° (WSW) 20:52:12 2200.000
CUBESAT XI-V 19 Dec 20:49:56 20:54:29 57° 295° (WNW) 20:59:00 437.345
UWE-3 19 Dec 21:05:36 21:09:40 46° 63° (ENE) 21:13:51 435.000/436.395/437.385
FUNcube-1 19 Dec 21:07:09 21:11:09 42° 61° (ENE) 21:15:16 145.935
COMPASS 1 19 Dec 21:07:56 21:12:10 68° 256° (WSW) 21:16:27 437.405
MOZHAYETS 4 19 Dec 21:08:02 21:10:10 13° 323° (NW) 21:12:18
HO-68 19 Dec 21:10:33 21:17:36 56° 258° (WSW) 21:24:41 435.675
SEEDS 19 Dec 21:12:23 21:16:36 56° 259° (WSW) 21:20:51 437.485
GOMX 1 19 Dec 21:12:43 21:16:50 61° 258° (WSW) 21:21:05 467.674
CUTE 1.7 + AOD 2 19 Dec 21:14:46 21:18:56 49° 260° (W) 21:23:09 437.475
GONETS M04 19 Dec 21:19:27 21:21:24 11° 309° (NW) 21:23:22
AISAT 19 Dec 21:21:30 21:25:38 40° 60° (ENE) 21:29:48 437.250
DX 1 19 Dec 21:23:44 21:28:06 84° 70° (ENE) 21:32:29 434.975-435.025
SO-50 19 Dec 21:29:17 21:30:22 11° 110° (ESE) 21:31:28 436.795
DELFI C3 19 Dec 21:29:38 21:33:47 90° 249° (WSW) 21:37:58 145.870
CUBEBUG 1 19 Dec 21:31:17 21:34:53 26° 53° (NE) 21:38:30 437.445
CUSAT 1 19 Dec 21:31:41 21:38:30 66° 260° (W) 21:46:41 437.405
50 SAT 19 Dec 21:31:58 21:35:43 38° 61° (ENE) 21:39:32 437.505
BEESAT 3 19 Dec 21:38:26 21:42:36 63° 219° (SW) 21:46:44 437.485
AIST 2 19 Dec 21:40:11 21:44:32 90° 209° (SSW) 21:48:52 435.215
DOVE 4 19 Dec 21:42:14 21:46:15 45° 261° (W) 21:50:24 437.250
AUBIESAT-1 19 Dec 21:42:31 21:44:20 12° 16° (NNE) 21:46:08 437.475
HUMSAT D 19 Dec 21:47:12 21:51:17 57° 66° (ENE) 21:55:27 437.325/437.525
Oscar 11 19 Dec 21:47:57 21:52:15 60° 258° (WSW) 21:56:36 145.826/435.025
UKube-1 19 Dec 21:55:55 22:00:12 59° 256° (WSW) 22:04:32 .
BEESAT 19 Dec 21:58:34 21:58:59 10° 27° (NNE) 21:59:24 436.000
TIGRISAT 19 Dec 21:58:44 21:59:47 11° 78° (ENE) 22:00:49 435.000
CUBEBUG 2 19 Dec 22:02:02 22:06:15 65° 257° (WSW) 22:10:37 437.445
PCSat 19 Dec 22:03:31 22:09:01 84° 36° (NE) 22:14:28 145.827
M-CUBED/EXP-1 PRIME 19 Dec 22:06:23 22:08:55 14° 23° (NNE) 22:11:25 437.505
AAUSAT CUBESAT 2 19 Dec 22:09:50 22:13:26 26° 268° (W) 22:17:04 437.432
PRISM 19 Dec 22:11:00 22:12:58 13° 320° (NW) 22:14:56 437.425
CINEMA 3 19 Dec 22:13:50 22:17:47 38° 264° (W) 22:21:53 145.822/145.860
ESTCUBE 1 19 Dec 22:14:28 22:18:51 50° 63° (ENE) 22:23:16 437.505/2401.250
VELOX 1 19 Dec 22:14:55 22:19:21 90° 239° (WSW) 22:23:49 145.980
ZACube-1 19 Dec 22:16:13 22:20:25 63° 257° (WSW) 22:24:45 437.345
BEESAT 2 19 Dec 22:17:40 22:21:39 41° 226° (SW) 22:25:36 435.950
STRAND 1 19 Dec 22:17:45 22:21:55 26° 313° (NW) 22:26:04 437.568
DANDE 19 Dec 22:19:35 22:26:00 45° 267° (W) 22:33:42 436.750
CANX-2 19 Dec 22:21:47 22:24:32 16° 275° (W) 22:27:18 2200.000
BRITE-PL 19 Dec 22:22:31 22:25:04 16° 276° (W) 22:27:38 437.365/2234.400
UNISAT 6 19 Dec 22:25:57 22:29:03 17° 84° (E) 22:32:09 437.425
CUBESAT XI-V 19 Dec 22:28:10 22:31:09 17° 317° (NW) 22:34:07 437.345
DUCHIFAT 1 19 Dec 22:36:46 22:38:47 13° 83° (E) 22:40:48 145.980
RS-15 19 Dec 22:37:58 22:47:43 38° 247° (WSW) 22:57:49 29.354- 29.394
BUGSAT 1 19 Dec 22:40:24 22:41:32 11° 81° (E) 22:42:40 437.445
TISAT 1 19 Dec 22:41:39 22:45:20 30° 56° (ENE) 22:49:03 437.305
SPROUT 19 Dec 22:42:20 22:46:03 29° 56° (NE) 22:49:47 437.525
UWE-3 19 Dec 22:42:27 22:46:22 36° 264° (W) 22:50:25 435.000/436.395/437.385
FUNcube-1 19 Dec 22:43:36 22:47:36 40° 263° (W) 22:51:42 145.935
COMPASS 1 19 Dec 22:46:27 22:48:45 14° 277° (W) 22:51:03 437.405
YUBILEINY 19 Dec 22:48:29 22:54:32 22° 67° (ENE) 23:00:34 435.215
QB50P2 19 Dec 22:49:13 22:51:58 17° 86° (E) 22:54:43 145.880/145.840
SEEDS 19 Dec 22:51:48 22:53:25 12° 280° (W) 22:55:01 437.485
GOMX 1 19 Dec 22:54:23 22:56:00 12° 280° (W) 22:57:39 467.674
CUTE 1.7 + AOD 2 19 Dec 22:55:17 22:55:58 10° 282° (WNW) 22:56:38 437.475
ANTELSAT 19 Dec 22:57:19 23:01:21 27° 91° (E) 23:05:23 437.575/2403.000
POLYITAN 1 19 Dec 22:57:33 23:00:38 19° 88° (E) 23:03:43 437.675
AISAT 19 Dec 22:58:04 23:02:18 44° 261° (W) 23:06:34 437.250
NANOSAT C BR1 19 Dec 23:00:29 23:03:36 20° 88° (E) 23:06:43 145.865
DX 1 19 Dec 23:01:39 23:04:55 21° 271° (W) 23:08:13 434.975-435.025
HO-68 19 Dec 23:02:26 23:07:01 18° 282° (WNW) 23:11:37 435.675
SO-50 19 Dec 23:05:25 23:09:45 40° 132° (SE) 23:14:12 436.795
CUBEBUG 1 19 Dec 23:06:34 23:10:57 76° 254° (WSW) 23:15:20 437.445
DELFI C3 19 Dec 23:06:49 23:09:40 18° 273° (W) 23:12:33 145.870
SWISSCUBE 19 Dec 23:06:59 23:10:28 20° 44° (NE) 23:13:56 437.505
50 SAT 19 Dec 23:07:08 23:10:58 41° 262° (W) 23:14:53 437.505
ITUPSAT 1 19 Dec 23:07:15 23:10:39 20° 43° (NE) 23:14:03 437.325
AUBIESAT-1 19 Dec 23:14:09 23:17:57 23° 38° (NE) 23:21:41 437.475
QB50P1 19 Dec 23:14:32 23:18:04 25° 91° (E) 23:21:34 145.935-145.965
CUSAT 1 19 Dec 23:15:29 23:20:46 23° 280° (W) 23:26:43 437.405
BEESAT 3 19 Dec 23:17:17 23:20:09 18° 240° (WSW) 23:22:59 437.485
AIST 2 19 Dec 23:19:04 23:22:50 29° 232° (SW) 23:26:33 435.215
HUMSAT D 19 Dec 23:23:46 23:27:24 28° 267° (W) 23:31:06 437.325/437.525
Oscar 11 19 Dec 23:27:26 23:29:23 13° 279° (W) 23:31:21 145.826/435.025
BEESAT 19 Dec 23:31:31 23:35:26 26° 49° (NE) 23:39:21 436.000
TIGRISAT 19 Dec 23:33:11 23:37:42 47° 99° (E) 23:42:15 435.000
UKube-1 19 Dec 23:35:26 23:37:19 13° 278° (W) 23:39:13 .
M-CUBED/EXP-1 PRIME 19 Dec 23:38:30 23:42:46 30° 44° (NE) 23:46:58 437.505
CUBEBUG 2 19 Dec 23:41:47 23:43:55 13° 279° (W) 23:46:04 437.445
POPSAT HIP 1 19 Dec 23:42:55 23:46:56 39° 98° (E) 23:50:57 437.405
PCSat 19 Dec 23:47:12 23:52:05 35° 239° (WSW) 23:56:57 145.827
ESTCUBE 1 19 Dec 23:51:44 23:55:56 36° 264° (W) 00:00:09 437.505/2401.250
VELOX 1 19 Dec 23:53:23 23:56:36 19° 272° (W) 23:59:49 145.980
ZACube-1 19 Dec 23:55:44 23:57:45 13° 279° (W) 23:59:48 437.345
BEESAT 2 19 Dec 23:57:54 23:58:56 11° 247° (WSW) 23:59:58 435.950
STRAND 1 19 Dec 23:58:16 23:59:38 11° 336° (NNW) 00:01:01 437.568
UNISAT 6 20 Dec 00:01:57 00:06:38 74° 105° (ESE) 00:11:22 437.425
DANDE 20 Dec 00:04:36 00:08:11 15° 288° (WNW) 00:12:05 436.750
DUCHIFAT 1 20 Dec 00:11:18 00:15:32 63° 104° (ESE) 00:19:46 145.980
BUGSAT 1 20 Dec 00:13:58 00:17:59 56° 102° (ESE) 00:21:59 437.445
TISAT 1 20 Dec 00:16:51 00:21:01 57° 257° (WSW) 00:25:11 437.305
SPROUT 20 Dec 00:17:42 00:21:57 61° 257° (WSW) 00:26:13 437.525
QB50P2 20 Dec 00:24:19 00:28:36 80° 106° (ESE) 00:32:54 145.880/145.840
POLYITAN 1 20 Dec 00:32:54 00:37:12 89° 288° (WNW) 00:41:31 437.675
ANTELSAT 20 Dec 00:33:54 00:38:34 69° 292° (WNW) 00:43:16 437.575/2403.000
NANOSAT C BR1 20 Dec 00:35:47 00:40:04 85° 289° (WNW) 00:44:20 145.865
YUBILEINY 20 Dec 00:41:07 00:49:39 62° 93° (E) 00:58:10 435.215
SWISSCUBE 20 Dec 00:42:53 00:47:39 67° 66° (ENE) 00:52:26 437.505
ITUPSAT 1 20 Dec 00:43:04 00:47:50 64° 65° (ENE) 00:52:36 437.325
STARS 20 Dec 00:45:17 00:48:32 21° 48° (NE) 00:51:48 437.465
CUBEBUG 1 20 Dec 00:45:23 00:48:06 16° 275° (W) 00:50:48 437.445
SO-50 20 Dec 00:45:24 00:50:06 80° 335° (NNW) 00:54:57 436.795
KKS-1 20 Dec 00:46:54 00:50:34 26° 52° (NE) 00:54:15 437.445
AUBIESAT-1 20 Dec 00:47:24 00:52:16 65° 58° (ENE) 00:57:04 437.475
QB50P1 20 Dec 00:50:08 00:54:22 68° 292° (WNW) 00:58:36 145.935-145.965
RS-15 20 Dec 00:53:50 00:56:22 11° 275° (W) 00:58:56 29.354- 29.394
BEESAT 20 Dec 01:08:01 01:12:50 89° 253° (WSW) 01:17:41 436.000
TIGRISAT 20 Dec 01:10:06 01:14:28 42° 300° (WNW) 01:18:53 435.000
M-CUBED/EXP-1 PRIME 20 Dec 01:12:27 01:17:24 86° 245° (WSW) 01:22:19 437.505
POPSAT HIP 1 20 Dec 01:18:54 01:22:56 43° 298° (WNW) 01:26:59 437.405
Oscar 19 20 Dec 01:30:39 01:34:44 23° 87° (E) 01:38:47 437.125/150
AIST 1 20 Dec 01:31:34 01:32:19 10° 39° (NE) 01:33:04
UNISAT 6 20 Dec 01:39:08 01:43:08 29° 306° (NW) 01:47:09 437.425
ITAMSAT 1 20 Dec 01:45:42 01:48:24 14° 80° (E) 01:51:05 435.822/435.867
DUCHIFAT 1 20 Dec 01:47:32 01:51:11 29° 305° (NW) 01:54:51 145.980
BUGSAT 1 20 Dec 01:49:48 01:53:20 29° 303° (WNW) 01:56:52 437.445
MOZHAYETS 4 20 Dec 01:54:16 01:55:53 12° 34° (NE) 01:57:31
TISAT 1 20 Dec 01:56:14 01:57:48 12° 279° (W) 01:59:22 437.305
SPROUT 20 Dec 01:57:00 01:58:58 13° 278° (W) 02:00:56 437.525
QB50P2 20 Dec 02:00:44 02:04:10 24° 308° (NW) 02:07:36 145.880/145.840
O/OREOS (USA 219) 20 Dec 02:02:13 02:06:22 39° 115° (ESE) 02:10:33 437.305
POLYITAN 1 20 Dec 02:09:25 02:12:42 22° 310° (NW) 02:15:59 437.675
ANTELSAT 20 Dec 02:11:21 02:14:43 20° 314° (NW) 02:18:07 437.575/2403.000
NANOSAT C BR1 20 Dec 02:12:17 02:15:28 21° 310° (NW) 02:18:40 145.865
STARS 20 Dec 02:20:05 02:24:28 79° 69° (ENE) 02:28:54 437.465
SWISSCUBE 20 Dec 02:21:46 02:25:56 29° 268° (W) 02:30:07 437.505
ITUPSAT 1 20 Dec 02:21:50 02:26:06 31° 267° (W) 02:30:22 437.325
KKS-1 20 Dec 02:22:25 02:26:51 79° 253° (WSW) 02:31:21 437.445
AUBIESAT-1 20 Dec 02:23:05 02:27:31 33° 259° (WSW) 02:31:56 437.475
SO-50 20 Dec 02:26:23 02:31:05 56° 359° (N) 02:35:53 436.795
QB50P1 20 Dec 02:26:47 02:29:39 18° 313° (NW) 02:32:30 145.935-145.965
YUBILEINY 20 Dec 02:38:18 02:46:48 53° 299° (WNW) 02:55:19 435.215
AO-7 20 Dec 02:44:51 02:46:58 11° 67° (ENE) 02:49:06 29.400- 29.500
BEESAT 20 Dec 02:47:44 02:51:22 21° 272° (W) 02:55:01 436.000
TIGRISAT 20 Dec 02:47:54 02:50:14 14° 322° (NW) 02:52:35 435.000
M-CUBED/EXP-1 PRIME 20 Dec 02:49:12 02:53:01 22° 265° (W) 02:56:51 437.505
POPSAT HIP 1 20 Dec 02:56:00 02:57:56 13° 320° (NW) 02:59:53 437.405
AIST 1 20 Dec 03:07:22 03:11:22 35° 63° (ENE) 03:15:19
Oscar 19 20 Dec 03:09:34 03:14:49 88° 109° (ESE) 03:20:03 437.125/150
STRAND 1 20 Dec 03:12:26 03:13:53 11° 25° (NNE) 03:15:19 437.568
Gurwin Techsat 1B 20 Dec 03:15:33 03:20:30 38° 95° (E) 03:25:26 435.225
UNISAT 6 20 Dec 03:17:48 03:18:39 11° 329° (NNW) 03:19:31 437.425
ITAMSAT 1 20 Dec 03:23:57 03:29:04 56° 102° (ESE) 03:34:10 435.822/435.867
MOZHAYETS 4 20 Dec 03:27:46 03:31:57 33° 57° (ENE) 03:36:08
HORYU 2 20 Dec 03:34:28 03:38:12 24° 91° (E) 03:41:54 437.375
O/OREOS (USA 219) 20 Dec 03:41:20 03:45:43 54° 317° (NW) 03:50:09 437.305
STARS 20 Dec 03:58:03 04:01:30 22° 270° (W) 04:04:58 437.465
KKS-1 20 Dec 04:01:22 04:04:16 17° 274° (W) 04:07:12 437.445
SO-50 20 Dec 04:07:16 04:12:06 74° 22° (NNE) 04:17:01 436.795
PRISM 20 Dec 04:24:47 04:28:14 25° 52° (NE) 04:31:40 437.425
AO-7 20 Dec 04:35:01 04:42:42 37° 94° (E) 04:50:19 29.400- 29.500
YUBILEINY 20 Dec 04:39:13 04:46:03 25° 329° (NNW) 04:52:54 435.215
GONETS M04 20 Dec 04:42:31 04:49:07 25° 70° (ENE) 04:55:42
AIST 1 20 Dec 04:45:04 04:49:12 45° 265° (W) 04:53:16
STRAND 1 20 Dec 04:47:26 04:51:37 26° 48° (NE) 04:55:48 437.568
Oscar 19 20 Dec 04:49:21 04:53:43 28° 311° (NW) 04:58:06 437.125/150
CUBESAT XI-V 20 Dec 04:49:55 04:53:39 24° 51° (NE) 04:57:22 437.345
JAS-2 20 Dec 04:54:48 04:59:24 22° 82° (E) 05:03:39 435.910
Gurwin Techsat 1B 20 Dec 04:55:32 05:00:46 58° 297° (WNW) 05:05:58 435.225
ITAMSAT 1 20 Dec 05:03:41 05:08:30 40° 304° (NW) 05:13:18 435.822/435.867
MOZHAYETS 4 20 Dec 05:04:23 05:09:00 60° 258° (WSW) 05:13:39
HORYU 2 20 Dec 05:10:49 05:15:21 74° 292° (WNW) 05:19:52 437.375
O/OREOS (USA 219) 20 Dec 05:22:21 05:26:02 24° 341° (NNW) 05:29:44 437.305
SO-50 20 Dec 05:47:56 05:52:36 47° 225° (SW) 05:57:18 436.795
PRISM 20 Dec 05:59:11 06:03:25 78° 253° (WSW) 06:07:41 437.425
Cubesat XI-IV 20 Dec 06:15:41 06:19:48 22° 87° (E) 06:23:53 437.490
STRAND 1 20 Dec 06:25:11 06:30:19 87° 69° (ENE) 06:35:28 437.568
CUBESAT XI-V 20 Dec 06:25:57 06:30:39 89° 251° (WSW) 06:35:20 437.345
AO-7 20 Dec 06:27:58 06:36:25 85° 298° (WNW) 06:44:48 29.400- 29.500
Oscar 19 20 Dec 06:29:47 06:31:38 12° 334° (NNW) 06:33:29 437.125/150
GONETS M04 20 Dec 06:35:43 06:44:28 69° 96° (E) 06:53:13
Gurwin Techsat 1B 20 Dec 06:36:06 06:39:53 20° 320° (NW) 06:43:40 435.225
JAS-2 20 Dec 06:39:28 06:45:38 83° 108° (ESE) 06:51:06 435.910
YUBILEINY 20 Dec 06:41:20 06:46:55 18° 2° (N) 06:52:29 435.215
ITAMSAT 1 20 Dec 06:43:58 06:46:52 15° 327° (NNW) 06:49:46 435.822/435.867
MOZHAYETS 4 20 Dec 06:44:52 06:47:14 14° 279° (W) 06:49:38
HORYU 2 20 Dec 06:48:07 06:51:26 21° 313° (NW) 06:54:46 437.375
CUTE-I 20 Dec 06:48:48 06:53:39 34° 94° (E) 06:58:28 437.470
O/OREOS (USA 219) 20 Dec 07:03:25 07:06:51 21° 7° (N) 07:10:18 437.305
SO-50 20 Dec 07:29:39 07:32:11 14° 246° (WSW) 07:34:45 436.795
TIGRISAT 20 Dec 07:33:33 07:34:37 11° 32° (NNE) 07:35:41 435.000
PRISM 20 Dec 07:37:03 07:39:41 16° 274° (W) 07:42:20 437.425
Cubesat XI-IV 20 Dec 07:55:20 08:00:42 85° 109° (ESE) 08:06:02 437.490
UNISAT 6 20 Dec 08:00:44 08:03:10 15° 39° (NE) 08:05:38 437.425
CUBESAT XI-V 20 Dec 08:05:17 08:08:45 20° 273° (W) 08:12:14 437.345
STRAND 1 20 Dec 08:06:05 08:10:11 24° 271° (W) 08:14:17 437.568
DUCHIFAT 1 20 Dec 08:06:28 08:07:43 11° 37° (NE) 08:08:59 145.980
QB50P2 20 Dec 08:18:49 08:20:49 13° 40° (NE) 08:22:49 145.880/145.840
CANX-2 20 Dec 08:20:48 08:22:12 11° 79° (E) 08:23:35 2200.000
AO-7 20 Dec 08:20:57 08:28:31 40° 323° (NW) 08:36:04 29.400- 29.500
JAS-2 20 Dec 08:24:52 08:30:15 32° 313° (NW) 08:35:08 435.910
HO-68 20 Dec 08:27:05 08:32:15 21° 82° (E) 08:37:22 435.675
POLYITAN 1 20 Dec 08:27:07 08:29:25 15° 42° (NE) 08:31:45 437.675
CUTE-I 20 Dec 08:28:50 08:34:07 64° 296° (WNW) 08:39:22 437.470
NANOSAT C BR1 20 Dec 08:29:35 08:31:56 15° 43° (NE) 08:34:17 145.865
ANTELSAT 20 Dec 08:31:24 08:34:41 20° 47° (NE) 08:38:03 437.575/2403.000
GONETS M04 20 Dec 08:33:21 08:41:52 49° 302° (WNW) 08:50:24
BRITE-PL 20 Dec 08:35:53 08:38:46 16° 85° (E) 08:41:46 437.365/2234.400
YUBILEINY 20 Dec 08:40:39 08:47:41 26° 34° (NE) 08:54:41 435.215
COMPASS 1 20 Dec 08:43:14 08:45:03 12° 81° (E) 08:46:52 437.405
QB50P1 20 Dec 08:43:20 08:46:08 17° 46° (NE) 08:48:55 145.935-145.965
O/OREOS (USA 219) 20 Dec 08:43:21 08:47:29 34° 32° (NNE) 08:51:37 437.305
SEEDS 20 Dec 08:47:49 08:50:23 15° 84° (E) 08:52:55 437.485
CUTE 1.7 + AOD 2 20 Dec 08:50:34 08:53:32 18° 86° (E) 08:56:29 437.475
GOMX 1 20 Dec 09:03:49 09:07:17 21° 88° (E) 09:10:55 467.674
TIGRISAT 20 Dec 09:06:15 09:10:08 30° 55° (NE) 09:14:08 435.000
POPSAT HIP 1 20 Dec 09:11:07 09:14:32 24° 53° (NE) 09:17:59 437.405
CUSAT 1 20 Dec 09:13:46 09:16:47 17° 74° (ENE) 09:20:20 437.405
Oscar 11 20 Dec 09:26:04 09:28:39 15° 83° (E) 09:31:12 145.826/435.025
DOVE 4 20 Dec 09:30:25 09:34:17 26° 91° (E) 09:38:19 437.250
UNISAT 6 20 Dec 09:34:46 09:39:01 45° 62° (ENE) 09:43:23 437.425
UKube-1 20 Dec 09:34:49 09:36:55 13° 83° (E) 09:39:01 .
Cubesat XI-IV 20 Dec 09:35:50 09:40:23 30° 311° (NW) 09:44:56 437.490
DUCHIFAT 1 20 Dec 09:38:43 09:42:34 35° 59° (ENE) 09:46:26 145.980
BUGSAT 1 20 Dec 09:39:22 09:42:58 31° 57° (ENE) 09:46:33 437.445
AAUSAT CUBESAT 2 20 Dec 09:42:28 09:46:15 30° 93° (E) 09:50:01 437.432
CUBEBUG 2 20 Dec 09:43:35 09:46:29 16° 84° (E) 09:49:25 437.445
Oscar 19 20 Dec 09:44:53 09:46:08 11° 23° (NNE) 09:47:23 437.125/150
QB50P2 20 Dec 09:51:50 09:55:51 44° 62° (ENE) 09:59:54 145.880/145.840
CANX-2 20 Dec 09:54:53 09:59:10 53° 101° (E) 10:03:24 2200.000
ZACube-1 20 Dec 09:55:32 09:58:15 16° 84° (E) 10:01:00 437.345
CINEMA 3 20 Dec 09:57:51 10:01:51 28° 92° (E) 10:05:58 145.822/145.860
POLYITAN 1 20 Dec 10:00:28 10:04:34 50° 64° (ENE) 10:08:42 437.675
DANDE 20 Dec 10:02:51 10:06:33 30° 85° (E) 10:11:19 436.750
NANOSAT C BR1 20 Dec 10:02:56 10:07:01 52° 64° (ENE) 10:11:09 145.865
ANTELSAT 20 Dec 10:06:26 10:10:52 74° 69° (ENE) 10:15:28 437.575/2403.000
CUTE-I 20 Dec 10:09:28 10:13:25 22° 318° (NW) 10:17:22 437.470
JAS-2 20 Dec 10:10:15 10:13:39 15° 338° (NNW) 10:16:52 435.910
AO-7 20 Dec 10:13:01 10:19:28 26° 349° (N) 10:25:54 29.400- 29.500
BRITE-PL 20 Dec 10:13:34 10:18:03 74° 105° (ESE) 10:22:53 437.365/2234.400
HO-68 20 Dec 10:14:17 10:21:27 65° 105° (ESE) 10:28:33 435.675
QB50P1 20 Dec 10:17:12 10:21:23 66° 68° (ENE) 10:25:36 145.935-145.965
COMPASS 1 20 Dec 10:17:28 10:21:43 59° 102° (ESE) 10:25:57 437.405
UWE-3 20 Dec 10:21:49 10:25:40 26° 91° (E) 10:29:34 435.000/436.395/437.385
FUNcube-1 20 Dec 10:21:51 10:25:28 23° 89° (E) 10:29:06 145.935
SEEDS 20 Dec 10:22:40 10:27:00 73° 105° (ESE) 10:31:18 437.485
O/OREOS (USA 219) 20 Dec 10:22:48 10:27:19 78° 235° (SW) 10:31:50 437.305
CUTE 1.7 + AOD 2 20 Dec 10:25:47 10:30:09 84° 107° (ESE) 10:34:29 437.475
GONETS M04 20 Dec 10:34:35 10:41:22 23° 332° (NNW) 10:48:08
DELFI C3 20 Dec 10:35:34 10:39:30 40° 98° (E) 10:43:24 145.870
50 SAT 20 Dec 10:37:44 10:40:29 17° 86° (E) 10:43:14 437.505
YUBILEINY 20 Dec 10:38:09 10:46:45 58° 63° (ENE) 10:55:18 435.215
DX 1 20 Dec 10:38:23 10:42:28 37° 98° (E) 10:46:31 434.975-435.025
AISAT 20 Dec 10:39:14 10:42:31 20° 88° (E) 10:45:47 437.250
GOMX 1 20 Dec 10:41:27 10:46:01 90° 288° (WNW) 10:50:54 467.674
MaSat-1 20 Dec 10:42:15 10:44:22 38° 128° (SE) 10:46:28 437.345
TIGRISAT 20 Dec 10:42:16 10:46:40 64° 257° (WSW) 10:51:13 435.000
POPSAT HIP 1 20 Dec 10:45:53 10:50:06 77° 253° (WSW) 10:54:22 437.405
CUBEBUG 1 20 Dec 10:47:15 10:48:44 12° 80° (E) 10:50:13 437.445
CUSAT 1 20 Dec 10:54:16 10:58:35 76° 103° (ESE) 11:04:32 437.405
HUMSAT D 20 Dec 10:57:31 11:01:16 28° 93° (E) 11:05:01 437.325/437.525
Oscar 11 20 Dec 11:01:14 11:05:39 71° 105° (ESE) 11:10:01 145.826/435.025
RS-15 20 Dec 11:06:46 11:13:13 18° 95° (E) 11:19:42 29.354- 29.394
DOVE 4 20 Dec 11:07:56 11:12:30 74° 291° (WNW) 11:17:22 437.250
UKube-1 20 Dec 11:09:40 11:14:00 62° 104° (ESE) 11:18:18 .
UNISAT 6 20 Dec 11:11:45 11:15:56 39° 263° (W) 11:20:15 437.425
DUCHIFAT 1 20 Dec 11:14:19 11:18:23 47° 260° (W) 11:22:30 145.980
BUGSAT 1 20 Dec 11:14:21 11:18:21 53° 258° (WSW) 11:22:20 437.445
Cubesat XI-IV 20 Dec 11:16:50 11:19:03 13° 334° (NNW) 11:21:17 437.490
AAUSAT CUBESAT 2 20 Dec 11:18:01 11:22:12 55° 294° (WNW) 11:26:21 437.432
CUBEBUG 2 20 Dec 11:19:25 11:23:58 73° 105° (ESE) 11:28:39 437.445
Oscar 19 20 Dec 11:19:48 11:23:55 25° 46° (NE) 11:28:04 437.125/150
QB50P2 20 Dec 11:27:57 11:31:53 37° 263° (W) 11:35:52 145.880/145.840
ZACube-1 20 Dec 11:30:57 11:35:26 71° 104° (ESE) 11:40:00 437.345
Gurwin Techsat 1B 20 Dec 11:30:57 11:33:53 15° 32° (NNE) 11:36:49 435.225
CANX-2 20 Dec 11:31:05 11:35:00 33° 302° (WNW) 11:38:53 2200.000
VELOX 1 20 Dec 11:32:12 11:36:28 45° 100° (E) 11:40:43 145.980
ESTCUBE 1 20 Dec 11:34:05 11:37:56 27° 92° (E) 11:41:44 437.505/2401.250
CINEMA 3 20 Dec 11:34:52 11:39:27 67° 292° (WNW) 11:44:13 145.822/145.860
ITAMSAT 1 20 Dec 11:36:00 11:39:33 19° 39° (NE) 11:43:05 435.822/435.867
POLYITAN 1 20 Dec 11:36:55 11:40:44 32° 265° (W) 11:44:35 437.675
NANOSAT C BR1 20 Dec 11:39:23 11:43:09 31° 265° (W) 11:46:57 145.865
ANTELSAT 20 Dec 11:44:34 11:48:12 24° 271° (W) 11:51:56 437.575/2403.000
DANDE 20 Dec 11:45:22 11:49:34 60° 296° (WNW) 11:55:21 436.750
CUTE-I 20 Dec 11:50:58 11:51:49 10° 342° (NNW) 11:52:39 437.470
BRITE-PL 20 Dec 11:52:35 11:56:20 27° 305° (NW) 12:00:18 437.365/2234.400
TISAT 1 20 Dec 11:52:53 11:54:58 13° 83° (E) 11:57:04 437.305
COMPASS 1 20 Dec 11:53:31 11:57:16 30° 303° (WNW) 12:01:00 437.405
JAS-2 20 Dec 11:54:03 11:56:24 12° 5° (N) 11:58:41 435.910
QB50P1 20 Dec 11:54:12 11:57:41 25° 269° (W) 12:01:12 145.935-145.965
SPROUT 20 Dec 11:55:26 11:57:42 14° 83° (E) 11:59:57 437.525
FUNcube-1 20 Dec 11:57:50 12:02:19 77° 290° (WNW) 12:06:52 145.935
UWE-3 20 Dec 11:58:07 12:02:37 69° 292° (WNW) 12:07:13 435.000/436.395/437.385
SEEDS 20 Dec 11:58:56 12:02:31 26° 306° (NW) 12:06:06 437.485
CUTE 1.7 + AOD 2 20 Dec 12:02:14 12:05:41 23° 308° (NW) 12:09:07 437.475
HO-68 20 Dec 12:02:16 12:09:06 49° 309° (NW) 12:15:53 435.675
O/OREOS (USA 219) 20 Dec 12:02:59 12:06:06 19° 256° (WSW) 12:09:12 437.305
AO-7 20 Dec 12:03:25 12:10:02 27° 17° (NNE) 12:16:40 29.400- 29.500
DELFI C3 20 Dec 12:10:56 12:14:50 40° 299° (WNW) 12:18:41 145.870
50 SAT 20 Dec 12:12:11 12:16:22 85° 107° (ESE) 12:20:32 437.505
DX 1 20 Dec 12:14:40 12:18:51 46° 299° (WNW) 12:23:00 434.975-435.025
AISAT 20 Dec 12:15:18 12:19:46 88° 289° (WNW) 12:24:14 437.250
MaSat-1 20 Dec 12:15:53 12:17:46 24° 329° (NNW) 12:19:40 437.345
GOMX 1 20 Dec 12:20:10 12:23:46 24° 308° (NW) 12:27:31 467.674
CUBEBUG 1 20 Dec 12:21:51 12:26:08 54° 102° (ESE) 12:30:24 437.445
TIGRISAT 20 Dec 12:22:02 12:24:23 14° 279° (W) 12:26:47 435.000
POPSAT HIP 1 20 Dec 12:24:10 12:26:45 16° 275° (W) 12:29:22 437.405
HUMSAT D 20 Dec 12:33:08 12:37:24 60° 293° (WNW) 12:41:40 437.325/437.525
YUBILEINY 20 Dec 12:35:18 12:43:42 56° 270° (W) 12:52:05 435.215
GONETS M04 20 Dec 12:36:35 12:42:21 18° 5° (N) 12:48:06
Oscar 11 20 Dec 12:37:50 12:41:32 27° 306° (NW) 12:45:13 145.826/435.025
CUSAT 1 20 Dec 12:38:18 12:42:28 30° 313° (NW) 12:47:51 437.405
UKube-1 20 Dec 12:46:10 12:49:58 30° 305° (NW) 12:53:44 .
DOVE 4 20 Dec 12:46:24 12:49:45 21° 311° (NW) 12:53:13 437.250
BUGSAT 1 20 Dec 12:54:02 12:54:49 10° 279° (W) 12:55:36 437.445
AAUSAT CUBESAT 2 20 Dec 12:54:38 12:57:06 15° 316° (NW) 12:59:35 437.432
CUBEBUG 2 20 Dec 12:56:32 13:00:24 28° 305° (NW) 13:04:21 437.445
Oscar 19 20 Dec 12:57:31 13:02:41 79° 68° (ENE) 13:07:54 437.125/150
BEESAT 20 Dec 12:59:35 13:01:43 13° 80° (E) 13:03:49 436.000
ZACube-1 20 Dec 13:07:44 13:11:33 28° 305° (NW) 13:15:25 437.345
Gurwin Techsat 1B 20 Dec 13:07:46 13:12:40 39° 55° (NE) 13:17:34 435.225
HORYU 2 20 Dec 13:07:47 13:11:04 20° 46° (NE) 13:14:22 437.375
CANX-2 20 Dec 13:08:45 13:09:51 11° 324° (NW) 13:10:56 2200.000
VELOX 1 20 Dec 13:08:56 13:13:04 40° 301° (WNW) 13:17:12 145.980
ESTCUBE 1 20 Dec 13:10:43 13:15:13 67° 293° (WNW) 13:19:41 437.505/2401.250
RS-15 20 Dec 13:12:24 13:22:40 51° 122° (ESE) 13:33:06 29.354- 29.394
CINEMA 3 20 Dec 13:12:49 13:16:02 19° 313° (NW) 13:19:21 145.822/145.860
ITAMSAT 1 20 Dec 13:13:07 13:18:10 55° 62° (ENE) 13:23:14 435.822/435.867
TISAT 1 20 Dec 13:27:26 13:31:40 65° 104° (ESE) 13:35:52 437.305
SPROUT 20 Dec 13:30:21 13:34:39 66° 104° (ESE) 13:38:56 437.525
DANDE 20 Dec 13:31:00 13:34:35 20° 325° (NW) 13:38:58 436.750
FUNcube-1 20 Dec 13:34:50 13:38:07 21° 311° (NW) 13:41:27 145.935
JAS-2 20 Dec 13:34:52 13:39:18 19° 30° (NNE) 13:43:27 435.910
UWE-3 20 Dec 13:35:23 13:38:33 19° 313° (NW) 13:41:47 435.000/436.395/437.385
DELFI C3 20 Dec 13:47:37 13:49:10 12° 320° (NW) 13:50:42 145.870
50 SAT 20 Dec 13:47:58 13:51:12 22° 308° (NW) 13:54:25 437.505
HO-68 20 Dec 13:50:04 13:55:28 24° 334° (NNW) 14:00:52 435.675
MaSat-1 20 Dec 13:51:03 13:51:47 11° 352° (N) 13:52:31 437.345
DX 1 20 Dec 13:51:57 13:54:13 14° 320° (NW) 13:56:29 434.975-435.025
AISAT 20 Dec 13:52:29 13:55:57 23° 310° (NW) 13:59:24 437.250
AO-7 20 Dec 13:53:23 14:01:11 46° 43° (NE) 14:09:02 29.400- 29.500
AUBIESAT-1 20 Dec 13:57:30 13:58:52 11° 85° (E) 14:00:11 437.475
CUBEBUG 1 20 Dec 13:58:30 14:02:24 33° 303° (WNW) 14:06:17 437.445
BEESAT 2 20 Dec 14:01:30 14:03:36 14° 116° (ESE) 14:05:44 435.950
KKS-1 20 Dec 14:05:12 14:06:48 12° 80° (E) 14:08:23 437.445
HUMSAT D 20 Dec 14:09:48 14:12:30 17° 315° (NW) 14:15:14 437.325/437.525
SWISSCUBE 20 Dec 14:10:58 14:15:29 39° 97° (E) 14:19:57 437.505
ITUPSAT 1 20 Dec 14:11:25 14:15:53 37° 96° (E) 14:20:18 437.325
M-CUBED/EXP-1 PRIME 20 Dec 14:21:47 14:24:59 18° 92° (E) 14:28:00 437.505
UKube-1 20 Dec 14:24:17 14:24:58 10° 327° (NNW) 14:25:39 .
CUSAT 1 20 Dec 14:24:55 14:27:55 15° 341° (NNW) 14:31:19 437.405
YUBILEINY 20 Dec 14:33:03 14:38:37 19° 295° (WNW) 14:44:12 435.215
Cubesat XI-IV 20 Dec 14:33:12 14:35:04 12° 23° (NNE) 14:36:57 437.490
GONETS M04 20 Dec 14:35:40 14:43:02 28° 38° (NE) 14:50:20
BEESAT 20 Dec 14:35:57 14:40:41 55° 102° (ESE) 14:45:21 436.000
Oscar 19 20 Dec 14:38:18 14:42:37 27° 270° (W) 14:46:59 437.125/150
PCSat 20 Dec 14:38:56 14:43:21 26° 116° (ESE) 14:47:48 145.827
HORYU 2 20 Dec 14:42:40 14:47:09 73° 68° (ENE) 14:51:41 437.375
VELOX 1 20 Dec 14:46:42 14:48:41 13° 323° (NW) 14:50:40 145.980
Gurwin Techsat 1B 20 Dec 14:47:15 14:52:31 61° 257° (WSW) 14:57:49 435.225
ESTCUBE 1 20 Dec 14:48:18 14:51:26 19° 315° (NW) 14:54:34 437.505/2401.250
ITAMSAT 1 20 Dec 14:53:03 14:57:54 39° 263° (W) 15:02:47 435.822/435.867
BEESAT 3 20 Dec 14:57:36 15:01:18 32° 130° (SE) 15:05:03 437.485
TISAT 1 20 Dec 15:03:39 15:07:16 28° 305° (NW) 15:10:52 437.305
AIST 2 20 Dec 15:04:49 15:08:09 22° 123° (ESE) 15:11:31 435.215
CUTE-I 20 Dec 15:04:57 15:07:50 15° 31° (NNE) 15:10:42 437.470
SPROUT 20 Dec 15:06:50 15:10:30 28° 305° (NW) 15:14:10 437.525
JAS-2 20 Dec 15:16:23 15:23:01 41° 53° (NE) 15:28:59 435.910
DANDE 20 Dec 15:18:37 15:20:49 12° 354° (N) 15:23:14 436.750
RS-15 20 Dec 15:23:25 15:34:23 88° 331° (NNW) 15:45:39 29.354- 29.394
MaSat-1 20 Dec 15:24:47 15:25:57 13° 16° (NNE) 15:27:09 437.345
AUBIESAT-1 20 Dec 15:30:30 15:35:00 50° 107° (ESE) 15:39:08 437.475
STARS 20 Dec 15:36:29 15:40:39 38° 97° (E) 15:44:49 437.465
CUBEBUG 1 20 Dec 15:36:34 15:37:41 11° 325° (NW) 15:38:47 437.445
HO-68 20 Dec 15:36:36 15:41:03 18° 360° (N) 15:45:31 435.675
BEESAT 2 20 Dec 15:36:59 15:41:02 50° 137° (SE) 15:45:07 435.950
KKS-1 20 Dec 15:40:05 15:44:30 53° 102° (ESE) 15:48:53 437.445
AO-7 20 Dec 15:45:15 15:53:38 80° 248° (WSW) 16:02:05 29.400- 29.500
SWISSCUBE 20 Dec 15:48:53 15:53:31 50° 299° (WNW) 15:58:06 437.505
ITUPSAT 1 20 Dec 15:49:19 15:54:00 52° 298° (WNW) 15:58:37 437.325
AIST 1 20 Dec 15:50:39 15:52:20 12° 77° (ENE) 15:54:00
M-CUBED/EXP-1 PRIME 20 Dec 15:56:05 16:00:47 81° 114° (ESE) 16:05:05 437.505
